Showing default

COSMOS 894, 9846

Orbit data source: Space-Track

COSMOS 894, 9846 is a payload satellite owned by VMF (CIS) in LEO that was launched on Mon, 21 Feb 1977 UTC via a KOSMOS 11K65M launch vehicle from the Plesetsk Missile And Space Complex (PKMTR). Payload-class satellites include a variety of spacecraft equipped with specific instruments for various scientific and technological missions. These include communications satellites like Starlink; space stations such as the ISS; scientific satellites like the Hubble; Earth observation satellites from companies like Planet Labs, Umbra, and HawkEye 360; GPS; miniature CubeSats for education and research; and military/defense satellites.

Loading next visibility...
Identifier
9846, 1977-013A
Orbit
LEO
Country
Flag of CISCIS
Related business
Manufacturer
Omsk Av. Zav.
Mission
Spacecraft
Bus & Motor
KAUR-1 11F627, Unknown motor
Mass
800 kg wet, 800 kg dry
Launch date (UTC)
1977-02-21 (49 years ago)
Launch vehicle
KOSMOS 11K65M
Launch site
Plesetsk Missile And Space Complex (PKMTR)
Object type
Payload
Rocket body
Debris
Shape & HBR
Unknown
Radar Cross Section
Large (>1 m²)

Expand to show TLE details & history
Last TLE update: 4 hours ago

TLE from 4 hours ago
0 COSMOS 894
1 09846U 77013A   25308.66199028  .00000057  00000-0  43817-4 0  9993
2 09846  82.9412 263.2301 0031205 113.2319  59.7927 13.74181941441336
Epoch: 2025-11-04T15:53Z
TLE epoch observation values (Epoch: 2025-11-04T15:53:15.960Z)
Latitude
6.53991°
Longitude
159.95865°
Altitude
975.375 km
Speed
7.37 km/s
True Right ascension
05h 29m 41s
True Declination
6° 30' 08"
Sunlit
Object was in full shadow at epoch
Visualization orbit readout
Latitude
Unknown
Longitude
Unknown
Altitude
Unknown
Speed
Unknown
Apparent Right ascension
Unknown
Apparent Declination
Unknown
Sunlit
N/A
Visualization observer readout
Local Sidereal Time
16:02:58
Azimuth
Unknown
Elevation
Unknown
Doppler factor
Unknown
Orbital elements
Apogee altitude
1,004.712 km
Perigee altitude
958.779 km
Semi-major axis
7,359.882 km
Eccentricity
0.00312
Inclination
82.9412°
RAAN
263.2301°
Arg. of periapsis
113.2319°
True anomaly
60.10233°
Mean anomaly
59.7927°
Eccentric anomaly
59.94746°
Mean motion
3.43745 °/min
Orbital period
104.73 mins
BSTAR
0.000043817
Loading maneuver chart data...
Computing Atmospheric mass density...
Loading historical data...
Loading historical data...
Loading historical data...
Loading historical data...
Loading historical data...
Loading historical data...
Loading historical data...
Other satellites on launch #13 in the year 1977 (1977-02-21 UTC)

Documentation

Showing up to 5 results
|